Flag for U.S.A. Weather past 2 weeks in Santa Barbara, California, U.S.A.

Now
54 °F

Clear.


Feels Like: 51 °F
Forecast: 51 / 66 °F
Wind: 9 mph from East

Location: Santa Barbara Municipal Airport

Current Time: May 3, 2015 at 4:57:29 AM

Latest Report: May 3, 2015 at 3:53 AM


Visibility: 8 mi

Pressure: 29.86 "Hg

Humidity: 90%

Dew point: 51 °F

Location of Santa BarbaraLocation

Historic Weather in Santa Barbara — Graph

°F

Santa Barbara temperature yesterday

Maximum temperature yesterday: 64 °F (at 11:53 AM)
Minimum temperature yesterday: 48 °F (at 3:53 AM)
Average temperature yesterday: 56 °F

Past Weeks' High & Low Weather Summary

 TemperatureHumidityPressure
High80 °F (Apr 26, 4:53 PM)97% (Apr 19, 5:53 AM)30.02 "Hg (Apr 19, 5:53 AM)
Low48 °F (May 2, 3:53 AM)23% (Apr 26, 4:53 PM)29.78 "Hg (Apr 30, 2:53 AM)
Average60 °F71%29.91 "Hg
* Reported Apr 18 2:53 AM — May 3 2:53 AM, Santa Barbara, Weather by CustomWeather, © 2015

Note: Actual official high and low records may vary slightly from our data, if they occured in-between our weather recording intervals... More about our weather records

Advertising

Santa Barbara weather history for previous 24 hours

 ConditionsComfort  
Time TempWeatherWind HumidityBarometerVisibility
2:53 AM
Sun, May 3
54 °FClear.7 mph86%29.85 "Hg8 mi
1:53 AM52 °FClear.6 mph89%29.85 "Hg10 mi
12:53 AM51 °FClear.No wind89%29.85 "Hg10 mi
11:53 PM
Sat, May 2
52 °FClear.No wind86%29.86 "Hg10 mi
10:53 PM52 °FClear.No wind86%29.86 "Hg10 mi
9:53 PM56 °FClear.No wind84%29.86 "Hg9 mi
8:53 PM55 °FClear.5 mph87%29.85 "Hg9 mi
7:53 PM57 °FSunny.10 mph81%29.85 "Hg9 mi
6:53 PM59 °FSunny.13 mph75%29.85 "Hg10 mi
5:53 PM61 °FSunny.16 mph72%29.85 "Hg10 mi
4:53 PM63 °FSunny.16 mph65%29.85 "Hg10 mi
3:53 PM64 °FSunny.15 mph63%29.87 "Hg10 mi
2:53 PM64 °FSunny.16 mph63%29.88 "Hg10 mi
1:53 PM64 °FSunny.18 mph63%29.89 "Hg10 mi
12:53 PM64 °FSunny.15 mph61%29.90 "Hg10 mi
11:53 AM64 °FSunny.16 mph61%29.91 "Hg10 mi
10:53 AM63 °FSunny.12 mph68%29.90 "Hg10 mi
9:53 AM62 °FSunny.8 mph70%29.90 "Hg10 mi
8:53 AM60 °FSunny.No wind80%29.89 "Hg9 mi
7:53 AM55 °FPartly sunny.No wind90%29.88 "Hg8 mi
6:53 AM51 °FFog.3 mph92%29.86 "Hg5 mi
5:53 AM49 °FFog.No wind97%29.85 "Hg0 mi
4:53 AM50 °FLow clouds.No wind89%29.85 "Hg9 mi
4:03 AM48 °FPassing clouds.No wind89%29.86 "Hg9 mi
Weather by CustomWeather, © 2015

See weather overviewHow to use our weather pages